Flag for Germany Weather past 2 weeks in Papenburg, Lower Saxony, Germany

Now
56 °F

Overcast.


Feels Like: 55 °F
Forecast: 46 / 56 °F
Wind: 5 mph from Northwest

Location: Emden-Koenigspolder

Current Time: May 25, 2015 at 12:49:40 PM

Latest Report: May 25, 2015 at 12:00 PM


Visibility: 19 mi

Pressure: 29.97 "Hg

Humidity: 60%

Dew point: 42 °F

Location of PapenburgLocation

Historic Weather in Papenburg — Graph

°F

Papenburg temperature yesterday

Maximum temperature yesterday: 63 °F (at 6:00 PM)
Minimum temperature yesterday: 47 °F (at 4:00 AM)
Average temperature yesterday: 53 °F

Past Weeks' High & Low Weather Summary

 TemperatureHumidityPressure
High76 °F (May 11, 6:00 PM)100% (May 12, 1:00 AM)30.32 "Hg (May 12, 1:00 AM)
Low36 °F (May 15, 4:00 AM)41% (May 11, 4:00 PM)29.54 "Hg (May 18, 9:00 PM)
Average52 °F75%30.04 "Hg
* Reported May 10 12:00 Noon — May 25 12:00 Noon, Papenburg, Weather by CustomWeather, © 2015

Note: Actual official high and low records may vary slightly from our data, if they occured in-between our weather recording intervals... More about our weather records

Advertising

Papenburg weather history for previous 24 hours

 ConditionsComfort  
Time TempWeatherWind HumidityBarometerVisibility
12:00 PM
Mon, May 25
56 °FOvercast.5 mph60%29.97 "Hg19 mi
11:00 AMN/APassing clouds.2 mphN/AN/A3 mi
10:00 AM52 °FOvercast.5 mph77%29.98 "Hg25 mi
9:00 AM50 °FLight rain. Low clouds.5 mph88%29.97 "Hg5 mi
8:00 AM51 °FLight rain. Overcast.5 mph80%29.96 "Hg19 mi
7:00 AM50 °FOvercast.2 mph85%29.96 "Hg22 mi
6:00 AM50 °FOvercast.3 mph86%29.96 "Hg19 mi
4:00 AM52 °FLow clouds.6 mph94%29.96 "Hg14 mi
3:00 AM53 °FDrizzle. Low clouds.3 mph92%29.96 "Hg3 mi
2:00 AM54 °FOvercast.2 mph81%29.98 "Hg16 mi
1:00 AM55 °FOvercast.2 mph76%29.99 "Hg19 mi
12:00 AM53 °FOvercast.1 mph86%30.00 "Hg12 mi
10:00 PM
Sun, May 24
54 °FOvercast.2 mph81%30.02 "Hg15 mi
9:00 PM55 °FOvercast.2 mph77%30.01 "Hg19 mi
8:00 PM58 °FScattered clouds.3 mph67%30.03 "Hg19 mi
7:00 PM60 °FSunny.6 mph63%30.03 "Hg13 mi
6:00 PM63 °FSunny.3 mph48%30.03 "Hg17 mi
4:00 PM62 °FSunny.3 mph51%30.06 "Hg17 mi
3:00 PM60 °FSunny.3 mph53%30.08 "Hg7 mi
2:00 PM59 °FSunny.3 mph57%30.10 "Hg7 mi
1:00 PM57 °FSunny.3 mph63%30.11 "Hg9 mi
12:00 PM55 °FScattered clouds.3 mph65%30.13 "Hg12 mi
Weather by CustomWeather, © 2015

See weather overviewHow to use our weather pages